[Iaude] MPEC J238: 2024 JK8 [a=1.91,e=0.49,i=6.2,H=26.7]

mpec at cfa.harvard.edu mpec at cfa.harvard.edu
Thu May 9 20:18:42 EDT 2024


M.P.E.C. 2024-J238                                 Issued 2024 May 10, 00:17 UT

     The Minor Planet Electronic Circulars contain information on unusual
         minor planets, routine data on comets and natural satellites,
         and occasional editorial announcements.  They are published
    on behalf of Division F of the International Astronomical Union by the
          Minor Planet Center, Smithsonian Astrophysical Observatory,
                          Cambridge, MA 02138, U.S.A.
			  
             Prepared using the Tamkin Foundation Computer Network

                              MPC at CFA.HARVARD.EDU
            URL https://www.minorplanetcenter.net/    ISSN 1523-6714

                                    2024 JK8                                    


Observations:
     K24J08K* C2024 05 08.38220514 24 24.903-00 13 36.48         22.27wXEJ238F52
     K24J08K  C2024 05 08.39475214 24 25.776-00 14 18.64         21.99wXEJ238F52
     K24J08K  C2024 05 08.40734314 24 26.652-00 15 01.39         21.84wXEJ238F52
     K24J08K  C2024 05 08.52046214 24 35.258-00 21 29.63         21.78GVEJ238F51
     K24J08K  C2024 05 08.52110514 24 35.309-00 21 31.51         21.77GVEJ238F51
     K24J08K 1C2024 05 08.93673 14 25 34.96 -00 47 29.3          22.0 VXEJ238033
     K24J08K 1C2024 05 08.94036 14 25 35.28 -00 47 42.2          21.8 VXEJ238033
     K24J08K 1C2024 05 08.94398 14 25 35.65 -00 47 56.2          21.6 VXEJ238033
     K24J08K 1C2024 05 08.94760 14 25 36.01 -00 48 09.8          21.4 VXEJ238033
     K24J08K 1C2024 05 09.98505 14 28 10.35 -02 00 14.2          21.5 VXEJ238033
     K24J08K 1C2024 05 09.98820 14 28 10.73 -02 00 28.6          21.7 VXEJ238033
     K24J08K 1C2024 05 09.99135 14 28 11.14 -02 00 43.5          21.8 VXEJ238033

Observer details:
033 Karl Schwarzschild Observatory, Tautenburg.  Observers S. Melnikov, C.
    Hogner, F. Ludwig, M. Hartmann, B. Stecklum.  Measurer B. Stecklum.
    1.34-m f/3 Schmidt + CCD.
F51 Pan-STARRS 1, Haleakala.  Observers J. Herman, T. Lowe, P. Minguez, A.
    Schultz, I. Smith.  Measurers K. Chambers, T. de Boer, J. Fairlamb, H.
    Gao, M. Huber, C.-C. Lin, E. Magnier, Y. Ramanjooloo, R. Wainscoat, R.
    Weryk.  1.8-m Ritchey-Chretien + CCD.
F52 Pan-STARRS 2, Haleakala.  Observers J. Herman, T. Lowe, P. Minguez, A.
    Schultz, I. Smith.  Measurers K. Chambers, T. de Boer, J. Fairlamb, H.
    Gao, M. Huber, C.-C. Lin, E. Magnier, Y. Ramanjooloo, R. Wainscoat, R.
    Weryk.  1.8-m Ritchey-Chretien + CCD.

Orbital elements:
2024 JK8                                                 Earth MOID = 0.0124 AU
Epoch 2024 Mar. 31.0 TT = JDT 2460400.5                 MPC                     
M 331.38571              (2000.0)            P               Q                  
n   0.37233729     Peri.  217.68880     +0.03974548     +0.99533642             
a   1.9135730      Node    54.75536     -0.88859424     +0.07543779             
e   0.4946703      Incl.    6.17836     -0.45696890     -0.06012107             
P   2.65           H   26.77          G   0.15           U   8                  
Residuals in seconds of arc
240508 F52  0.2+  0.2-    240508 F51  0.0   0.2+    240508 033  0.1+  0.1+
240508 F52  0.0   0.1+    240508 033  0.4+  0.3-    240509 033  0.2+  0.0
240508 F52  0.2-  0.1+    240508 033  0.2-  0.4+    240509 033  0.2-  0.1+
240508 F51  0.0   0.2-    240508 033  0.0   0.1+    240509 033  0.1-  0.2-

Ephemeris:
2024 JK8                 a,e,i = 1.91, 0.49, 6                   q = 0.9670
Date    TT    R. A. (2000) Decl.     Delta      r    Elong.  Phase     V
2024 04 10    14 08 28.8 +04 58 17   0.2517  1.2430   161.4    14.9    25.1
...
2024 04 25    14 12 39.9 +04 50 51   0.1476  1.1472   162.0    15.7    23.8
...
2024 05 03    14 17 10.2 +03 05 07   0.09824 1.1011   160.3    17.9    22.9
...
2024 05 09    14 25 43.4 -00 49 36   0.06335 1.0696   161.0    17.9    21.9
2024 05 10    14 28 14.6 -01 59 18   0.05772 1.0647   161.6    17.5    21.6
2024 05 11    14 31 20.7 -03 24 46   0.05215 1.0598   162.4    16.7    21.4
...
2024 05 17    15 29 07.9 -27 06 13   0.02177 1.0328   172.1     7.8    19.1
...
2024 05 25    00 53 39.2 -34 36 34   0.03355 1.0031    72.2   106.0    23.3
...
2024 06 09    01 45 37.6 -17 13 42   0.1147  0.9702    63.9   110.0    26.2

A. U. Tomatic                (C) Copyright 2024 MPC           M.P.E.C. 2024-J238





More information about the Iaude mailing list